This is the latest recevied weather packets stored in our database for station/object W1REE. If no packets are shown the sender has not sent any weather packets the latest 1 day(s).
| Time | Temp. | Humidity | Pressure | Rain* | Wind** | Luminosity | Snow |
|---|---|---|---|---|---|---|---|
| 1777968697 | 8.33° C | 79% | 1014.1 hPa | 0 mm | 0 m/s | 0 W/m² | - |
| 1777968381 | 8.33° C | 80% | 1014.1 hPa | 0 mm | 0 m/s | 0 W/m² | - |
| 1777968077 | 8.33° C | 78% | 1014.2 hPa | 0 mm | 0 m/s | 0 W/m² | - |
| 1777967773 | 8.33° C | 79% | 1014.1 hPa | 0 mm | 0.45 m/s, 318° | 0 W/m² | - |
| 1777967470 | 8.33° C | 80% | 1014.2 hPa | 0 mm | 0 m/s | 0 W/m² | - |
| 1777967167 | 8.33° C | 80% | 1014.2 hPa | 0 mm | 0.45 m/s, 318° | 0 W/m² | - |
| 1777966864 | 8.33° C | 82% | 1014.2 hPa | 0 mm | 0 m/s | 0 W/m² | - |
| 1777966562 | 8.33° C | 81% | 1014.2 hPa | 0 mm | 0 m/s | 0 W/m² | - |
| 1777966260 | 8.33° C | 81% | 1014.5 hPa | 0 mm | 0 m/s | 0 W/m² | - |
| 1777965955 | 8.33° C | 83% | 1014.4 hPa | 0 mm | 0 m/s | 0 W/m² | - |
| 1777965652 | 7.78° C | 84% | 1014.2 hPa | 0 mm | 0 m/s | 0 W/m² | - |
| 1777965347 | 7.78° C | 86% | 1014.5 hPa | 0 mm | 0 m/s | 0 W/m² | - |
| 1777965046 | 7.78° C | 88% | 1014.5 hPa | 0 mm | 0 m/s | 0 W/m² | - |
| 1777964743 | 7.78° C | 88% | 1014.4 hPa | 0 mm | 0 m/s | 0 W/m² | - |
| 1777964439 | 7.78° C | 88% | 1014.4 hPa | 0 mm | 0 m/s | 0 W/m² | - |
| 1777964135 | 7.78° C | 88% | 1014.4 hPa | 0 mm | 0 m/s | 0 W/m² | - |
| 1777963832 | 7.78° C | 87% | 1014.1 hPa | 0 mm | 0 m/s | 0 W/m² | - |
| 1777963528 | 8.33° C | 86% | 1014.2 hPa | 0 mm | 0 m/s | 0 W/m² | - |
| 1777963227 | 8.33° C | 84% | 1014.2 hPa | 0 mm | 0 m/s | 0 W/m² | - |
| 1777962924 | 8.33° C | 83% | 1014.4 hPa | 0 mm | 0 m/s | 0 W/m² | - |
| 1777962619 | 8.33° C | 80% | 1014.6 hPa | 0 mm | 0 m/s | 0 W/m² | - |
| 1777962317 | 8.89° C | 79% | 1014.5 hPa | 0 mm | 0 m/s | 0 W/m² | - |
| 1777962014 | 8.33° C | 76% | 1014.5 hPa | 0 mm | 0 m/s | 0 W/m² | - |
| 1777961711 | 8.89° C | 81% | 1014.4 hPa | 0 mm | 0 m/s | 0 W/m² | - |
| 1777961409 | 8.89° C | 78% | 1014.5 hPa | 0 mm | 0 m/s | 0 W/m² | - |
* Rain latest hour (hover to see other rain measurements)
** Current wind speed in m/s (hover to see current wind gust speed)